Regional Weather Roundup
Issued by NWS

Home | Current Version | Previous Version | Graphics & Text | Print | Product List | Glossary On
Versions: 1 2 3 4 5 6 7 8 9 10 11 12 13 14 15 16 17 18 19 20 21 22 23 24 25 26 27 28 29 30 31 32 33 34 35 36 37 38 39 40 41 42 43 44 45 46 47 48 49 50
000
ASUS44 KMEG 212310
RWRTN
TENNESSEE HOURLY STATE WEATHER ROUNDUP
NATIONAL WEATHER SERVICE MEMPHIS TN
600 PM CDT SUN SEP 21 2014

TNZ002-004-019-021-049-052-054-088>092-220000-
WEST TENNESSEE

CITY           SKY/WX    TMP DP  RH WIND       PRES   REMARKS
MEMPHIS INTL   MOSUNNY   85  65  51 N12       29.97S
NWS MEMPHIS      N/A     85 N/A N/A MISG        N/A
JACKSON        SUNNY     83  66  56 N12       29.97R
DYERSBURG      SUNNY     79  54  41 N10       30.00R
UNION CITY     SUNNY     75  52  43 N7        29.99R
PARIS          CLEAR     75  45  33 VRB7      30.00R
HUNTINGDON     CLEAR     78  48  34 NW8       29.98R
LEXINGTON      CLEAR     81  66  61 NW5       29.96R
SAVANNAH       MOCLDY    84  70  61 NW8       29.96R
$$

TNZ008-025-027-028-033-062-065-066-220000-
NORTH MIDDLE TENNESSEE

CITY           SKY/WX    TMP DP  RH WIND       PRES   REMARKS
NASHVILLE      PTCLDY    83  62  49 NW14G21   29.93R
DICKSON        PTCLDY    79  64  61 NW7       29.95R
PORTLAND       CLEAR     77  46  33 NW10      29.95R
CLARKSVILLE    CLEAR     77  48  35 NW13      29.97R
LEBANON        CLEAR     82  61  49 NW14      29.91R
SMYRNA         PTCLDY    83  61  47 NW13      29.93R
MURFREESBORO   PTCLDY    82  66  58 W6        29.91S
COOKEVILLE     CLEAR     77  70  78 CALM      29.93R
LIVINGSTON     CLOUDY    76  63  64 NW12      29.94
GALLATIN       PTCLDY    82  62  50 NW13      29.94R
CROSSVILLE     CLOUDY    73  65  75 NW7       29.97S
$$

TNZ061-075-076-078-094-096-097-220000-
SOUTH MIDDLE TENNESSEE

CITY           SKY/WX    TMP DP  RH WIND       PRES   REMARKS
LEWISBURG      PTCLDY    84  68  58 N7        29.93S
FAYETTEVILLE   PTCLDY    79  66  65 NW7       29.95S
TULLAHOMA      CLEAR     75  70  83 W7        29.96S
WINCHESTER     MOCLDY    73  68  83 VRB5      29.96S
MCMINNVILLE    PTCLDY    75  73  94 CALM      29.94S
COLUMBIA       CLEAR     82  68  61 CALM      29.93S
SHELBYVILLE    PTCLDY    82  72  69 W7        29.94S
$$

TNZ017-018-042-046-047-220000-
NORTHEAST TENNESSEE

CITY           SKY/WX    TMP DP  RH WIND       PRES   REMARKS
TRI CITIES     MOCLDY    70  66  87 SW7       29.92R
ELIZABETHTON   PTCLDY    66  64  94 SW7       29.93R
$$

TNZ012-013-036-069-073-074-220000-
CENTRAL EAST TENNESSEE

CITY           SKY/WX    TMP DP  RH WIND       PRES   REMARKS
KNOXVILLE      CLOUDY    73  70  90 S6        29.92R
OAK RIDGE      MOCLDY    75  69  81 S5        29.93R
GATLINBURG     CLEAR     73  66  78 SW5       29.92R
MORRISTOWN     CLEAR     73  66  78 SW9       29.93R
$$

TNZ083-085-099-220000-
SOUTHEAST TENNESSEE

CITY           SKY/WX    TMP DP  RH WIND       PRES   REMARKS
CHATTANOOGA    MOCLDY    81  69  67 SW5       29.92R THUNDER
$$

SKY/WX REPORTED AS FAIR MEANS FEW OR NO CLOUDS BELOW
12 THOUSAND FEET.




USA.gov is the U.S. government's official web portal to all federal, state and local government web resources and services.